EA5CEE Santa Pola ES current weather conditions

sailwx.info

Wind from 065 at 6 knots gusting 10

Air temperature 23.9° C
Dewpoint 19.4° C

Last reported at 2017-Sep-21 15:04 UTC.
Time now 2017-Sep-21 16:13 UTC

Location: N 38°13' W 000°31'.
View on Google Maps.

See reports from other nearby stations

  
Tides and Currents Weather Stations Pressure Air Temp Water Temp Dewpoint Dewpoint Depression Visibility Wind Speed Wind Dir Waves Ship Positions
date/time (UTC)wind fromknots sea level pressurealtimeterstation pressurevisibilityair tempwater tempwave heightnotes
2017-Sep-21 15:04 065 6 gusting 10 23.9
2017-Sep-21 14:49 071 6 gusting 11 23.9
2017-Sep-21 14:34 091 7 gusting 9 23.9
2017-Sep-21 14:19 062 6 gusting 9 23.9
2017-Sep-21 14:04 078 6 gusting 9 23.9
2017-Sep-21 13:49 083 5 gusting 9 23.9
2017-Sep-21 13:34 080 6 gusting 10 23.9
2017-Sep-21 13:19 071 6 gusting 9 23.9
2017-Sep-21 13:04 073 7 gusting 9 23.3
2017-Sep-21 12:49 055 6 gusting 9 23.3
2017-Sep-21 12:34 079 6 gusting 11 23.3
2017-Sep-21 12:19 069 6 gusting 9 23.9
2017-Sep-21 12:04 079 5 gusting 8 23.9
2017-Sep-21 11:49 083 5 gusting 8 23.3
2017-Sep-21 11:34 086 6 gusting 9 23.3
2017-Sep-21 11:19 075 4 gusting 8 23.3
2017-Sep-21 11:04 054 4 gusting 6 23.3
2017-Sep-21 10:49 068 5 gusting 7 23.9
2017-Sep-21 10:34 093 4 gusting 6 23.3
2017-Sep-21 10:19 075 3 gusting 6 23.3
2017-Sep-21 10:04 070 2 gusting 6 23.3
2017-Sep-21 09:49 071 2 gusting 7 23.3
2017-Sep-21 09:34 037 2 gusting 6 22.8
2017-Sep-21 09:19 034 3 gusting 5 22.8
2017-Sep-21 09:04 063 2 gusting 6 22.8
2017-Sep-21 08:49 360 1 gusting 5 22.2
2017-Sep-21 08:33 034 2 gusting 5 22.2
2017-Sep-21 08:18 013 2 gusting 4 21.7
2017-Sep-21 08:03 023 1 gusting 4 21.7
2017-Sep-21 07:48 338 1 gusting 3 21.7
2017-Sep-21 07:33 338 0 gusting 2 21.1
2017-Sep-21 07:18 351 1 gusting 2 21.1
2017-Sep-21 07:03 336 20.6
2017-Sep-21 06:48 324 0 gusting 2 20.0
2017-Sep-21 06:33 324 20.0
2017-Sep-21 06:18 329 0 gusting 2 20.0
2017-Sep-21 06:04 330 0 gusting 2 20.0
2017-Sep-21 05:48 330 1 gusting 3 20.0
2017-Sep-21 05:33 330 0 gusting 2 20.0
2017-Sep-21 05:18 003 0 gusting 3 20.0
2017-Sep-21 05:04 298 0 gusting 2 20.0
2017-Sep-21 04:48 298 0 gusting 2 20.0
2017-Sep-21 04:33 298 0 gusting 2 20.0
2017-Sep-21 04:18 298 20.0
2017-Sep-21 04:03 298 20.0
2017-Sep-21 03:48 298 20.0
2017-Sep-21 03:33 299 0 gusting 2 20.0
2017-Sep-21 03:22 298 20.0
2017-Sep-21 03:03 298 20.0
2017-Sep-21 02:48 298 20.0
2017-Sep-21 02:33 298 20.0
2017-Sep-21 02:18 294 0 gusting 2 20.0
2017-Sep-21 02:03 293 0 gusting 3 20.0
2017-Sep-21 01:48 293 0 gusting 2 20.6
2017-Sep-21 01:33 291 20.6
2017-Sep-21 01:18 291 0 gusting 1 20.6
2017-Sep-21 01:03 291 0 gusting 1 20.6
2017-Sep-21 00:48 291 20.6
2017-Sep-21 00:33 291 21.1
2017-Sep-21 00:18 291 21.1
2017-Sep-21 00:03 291 21.1
2017-Sep-20 23:48 291 21.1
2017-Sep-20 23:33 291 21.1
2017-Sep-20 23:18 291 21.1
2017-Sep-20 23:03 291 21.1
2017-Sep-20 22:48 290 21.1
2017-Sep-20 22:33 219 21.1
2017-Sep-20 22:18 219 21.7
2017-Sep-20 22:03 219 21.1
2017-Sep-20 21:48 219 21.1
2017-Sep-20 21:33 219 21.7
2017-Sep-20 21:18 219 21.7
2017-Sep-20 21:03 219 0 gusting 2 21.7
2017-Sep-20 20:48 205 21.7
2017-Sep-20 20:33 205 21.7
2017-Sep-20 20:18 214 0 gusting 2 21.7
2017-Sep-20 20:03 221 0 gusting 2 22.2
2017-Sep-20 19:48 191 0 gusting 4 22.2
2017-Sep-20 19:33 211 1 gusting 3 22.2
2017-Sep-20 19:17 225 3 gusting 5 22.2
2017-Sep-20 19:03 206 1 gusting 4 22.2
2017-Sep-20 18:47 224 1 gusting 4 22.2
2017-Sep-20 18:33 208 3 gusting 6 22.2
2017-Sep-20 18:17 184 3 gusting 8 22.8
2017-Sep-20 18:03 167 4 gusting 8 22.8
2017-Sep-20 17:47 165 5 gusting 8 23.3
2017-Sep-20 17:32 174 5 gusting 10 23.3
2017-Sep-20 17:17 203 6 gusting 10 23.9
2017-Sep-20 17:02 222 6 gusting 11 23.9
2017-Sep-20 16:47 180 5 gusting 11 23.9
2017-Sep-20 16:32 187 6 gusting 13 23.9
2017-Sep-20 16:17 155 6 gusting 13 24.4
2017-Sep-20 16:02 143 6 gusting 13 24.4
2017-Sep-20 15:47 144 7 gusting 13 24.4
2017-Sep-20 15:32 152 6 gusting 13 24.4
2017-Sep-20 15:17 222 6 gusting 14 24.4
2017-Sep-20 15:02 165 7 gusting 13 24.4
2017-Sep-20 14:47 210 6 gusting 11 25.0
2017-Sep-20 14:32 184 6 gusting 13 25.0
2017-Sep-20 14:17 215 6 gusting 12 25.0
2017-Sep-20 14:02 214 7 gusting 12 24.4
2017-Sep-20 13:47 135 6 gusting 13 24.4
2017-Sep-20 13:32 129 5 gusting 13 24.4
2017-Sep-20 13:17 156 8 gusting 13 24.4
2017-Sep-20 13:02 173 6 gusting 14 24.4
2017-Sep-20 12:47 160 5 gusting 13 24.4
2017-Sep-20 12:32 191 6 gusting 13 24.4
2017-Sep-20 12:17 229 6 gusting 13 24.4
2017-Sep-20 12:02 153 6 gusting 11 24.4
2017-Sep-20 11:47 134 6 gusting 12 24.4
2017-Sep-20 11:32 201 5 gusting 11 24.4
2017-Sep-20 11:17 118 5 gusting 10 25.0
2017-Sep-20 11:02 134 4 gusting 8 24.4
2017-Sep-20 10:47 158 6 gusting 8 24.4
2017-Sep-20 10:32 140 6 gusting 10 24.4
2017-Sep-20 10:17 200 4 gusting 9 23.9
2017-Sep-20 10:02 188 3 gusting 8 23.9
2017-Sep-20 09:47 163 3 gusting 6 23.9
2017-Sep-20 09:32 225 1 gusting 8 23.3
2017-Sep-20 09:17 085 2 gusting 4 23.3
2017-Sep-20 09:02 116 1 gusting 4 23.3
2017-Sep-20 08:47 074 2 gusting 5 23.3
2017-Sep-20 08:32 025 2 gusting 5 23.3
2017-Sep-20 08:17 068 3 gusting 6 22.8
2017-Sep-20 08:02 008 1 gusting 3 22.8
2017-Sep-20 07:47 029 1 gusting 3 22.2
2017-Sep-20 07:32 012 1 gusting 2 22.2
2017-Sep-20 07:16 329 0 gusting 2 21.7
2017-Sep-20 07:02 328 0 gusting 2 21.7
2017-Sep-20 06:46 326 21.1
2017-Sep-20 06:31 326 0 gusting 1 21.1
2017-Sep-20 06:16 326 20.6
2017-Sep-20 06:02 326 20.0
2017-Sep-20 05:46 326 0 gusting 3 20.0
2017-Sep-20 05:31 326 0 gusting 4 20.0
2017-Sep-20 05:16 326 1 gusting 3 20.0
2017-Sep-20 05:01 324 0 gusting 1 20.0
2017-Sep-20 04:46 324 20.0
2017-Sep-20 04:31 325 20.6
2017-Sep-20 04:16 324 20.6
2017-Sep-20 04:01 325 0 gusting 1 20.6
2017-Sep-20 03:46 324 0 gusting 1 20.6
2017-Sep-20 03:33 324 0 gusting 2 20.6
2017-Sep-20 03:22 323 20.6
2017-Sep-20 03:01 323 20.6
2017-Sep-20 02:46 318 20.6
2017-Sep-20 02:31 318 0 gusting 1 20.6
2017-Sep-20 02:16 318 21.1
2017-Sep-20 02:01 309 0 gusting 2 21.1
2017-Sep-20 01:46 309 20.6
2017-Sep-20 01:31 309 20.6
2017-Sep-20 01:16 309 21.1
2017-Sep-20 01:01 308 21.1
2017-Sep-20 00:46 307 21.1
2017-Sep-20 00:31 307 21.1
2017-Sep-20 00:16 307 21.1
2017-Sep-20 00:01 306 21.1
2017-Sep-19 23:46 306 21.1
2017-Sep-19 23:31 307 0 gusting 1 21.1
2017-Sep-19 23:16 305 21.7
2017-Sep-19 23:01 120 21.7
2017-Sep-19 22:46 120 21.7
2017-Sep-19 22:31 120 21.7
2017-Sep-19 22:16 120 21.7
2017-Sep-19 22:01 218 21.7
2017-Sep-19 21:46 219 21.7
2017-Sep-19 21:31 219 22.2
2017-Sep-19 21:16 219 0 gusting 1 22.2
2017-Sep-19 21:00 221 22.2
2017-Sep-19 20:45 219 22.2
2017-Sep-19 20:30 221 1 gusting 3 22.2
2017-Sep-19 20:15 207 1 gusting 3 22.2
2017-Sep-19 20:00 219 2 gusting 3 22.2
2017-Sep-19 19:45 217 1 gusting 3 22.2
2017-Sep-19 19:30 224 0 gusting 3 22.2
2017-Sep-19 19:15 203 0 gusting 2 22.2
2017-Sep-19 19:00 214 1 gusting 3 22.2
2017-Sep-19 18:45 231 2 gusting 6 22.2
2017-Sep-19 18:30 212 1 gusting 5 22.2
2017-Sep-19 18:15 160 2 gusting 4 22.8
2017-Sep-19 17:59 173 1 gusting 4 22.8
2017-Sep-19 17:44 158 2 gusting 5 23.3
2017-Sep-19 17:29 139 0 gusting 5 23.3
2017-Sep-19 17:14 111 2 gusting 6 23.3
2017-Sep-19 16:59 117 3 gusting 6 23.3
2017-Sep-19 16:44 127 3 gusting 7 23.3
2017-Sep-19 16:29 128 3 gusting 6 23.3
2017-Sep-19 16:14 093 3 gusting 6 23.3